Regional Weather Roundup
Issued by NWS

Home | Current Version | Previous Version | Graphics & Text | Print | Product List | Glossary On
Versions: 1 2 3 4 5 6 7 8 9 10 11 12 13 14 15 16 17 18 19 20 21 22 23 24 25 26 27 28 29 30 31 32 33 34 35 36 37 38 39 40 41 42 43 44 45 46 47 48 49 50
000
ASUS43 KLMK 050402
RWRKY
KENTUCKY REGIONAL WEATHER ROUNDUP
NATIONAL WEATHER SERVICE LOUISVILLE KY
1200 AM EDT SUN JUL 05 2015

NOTE "FAIR" INDICATES FEW OR NO CLOUDS BELOW 12,000 FEET
WITH NO SIGNIFICANT WEATHER AND/OR OBSTRUCTIONS TO VISIBILITY.

KYZ001>023-026-027-061>063-070>075-050500-
WESTERN AND SOUTH CENTRAL KENTUCKY

CITY           SKY/WX    TMP DP  RH WIND       PRES   REMARKS
PADUCAH        CLOUDY    71  68  90 CALM      30.01R FOG
HENDERSON      CLOUDY    72  66  83 CALM      30.01R
OWENSBORO      CLOUDY    75  71  87 CALM      30.02R
HOPKINSVILLE   CLOUDY    72  69  89 S3        30.01R
BOWLING GREEN  CLOUDY    74  69  85 CALM      30.01R HAZE
GLASGOW        NOT AVBL
$$

KYZ024-025-028>034-038-045-046-053-050500-
NORTH CENTRAL KENTUCKY

CITY           SKY/WX    TMP DP  RH WIND       PRES   REMARKS
LOUISVILLE/SDF CLOUDY    77  67  71 E6        30.02R HAZE
LOUISVILLE/LOU CLOUDY    76  67  73 E5        30.03R HAZE
FORT KNOX      CLOUDY    70  69  94 CALM      30.02R
$$

KYZ035>037-039>044-047>052-055>060-089>105-050500-
NORTHEAST KENTUCKY

CITY           SKY/WX    TMP DP  RH WIND       PRES   REMARKS
LEXINGTON      CLOUDY    72  66  81 E3        30.06R HAZE
COVINGTON      CLOUDY    70  62  76 CALM      30.06R
FRANKFORT      CLOUDY    71  66  84 CALM      30.04R HAZE
$$

KYZ054-064>069-076>088-106>120-050500-
SOUTHEAST KENTUCKY

CITY           SKY/WX    TMP DP  RH WIND       PRES   REMARKS
JACKSON        CLOUDY    71  67  87 CALM      30.08R
LONDON         CLOUDY    71  65  81 SE3       30.06S
SOMERSET       NOT AVBL
MIDDLESBORO    CLOUDY    69  69  98 CALM      30.08S FOG
MONTICELLO     CLOUDY    70  70 100 CALM      30.07S
$$




USA.gov is the U.S. government's official web portal to all federal, state and local government web resources and services.